Dewpoint
41 41 42 42 42 42 42 42 42 42 42 42 42 42 43 44 44 43 40 43 39 32 36 36 34 33 33 30 27 30 30 29 29 26 25 24 23 22 21 24 30 27 26 28 30 27 22 33 35 31 34 38 38 37
41 41 41 42 43 44 44 43 43 42 43 42 42 42 40 40 44 45 36 43 42 37 37 39 39 37 33 32 29 32 29 28 29 26 26 25 23 23 25 19 30 19 28 24 28 27 31 35 32 33 38 37 37 37
42 41 43 44 44 44 43 43 43 43 43 44 43 42 42 41 41 42 39 40 38 33 36 36 36 38 39 35 33 28 31 30 31 31 27 26 22 24 20 21 22 27 31 28 26 25 29 31 32 35 36 37 35 33
42 44 45 43 42 42 43 43 43 44 43 43 43 43 43 42 41 42 39 40 38 36 31 33 38 38 40 43 41 39 35 39 37 36 30 28 25 29 23 23 22 23 30 28 28 32 35 35 38 40 39 40 37 33
44 44 44 43 43 43 43 43 43 43 43 44 44 43 44 43 42 42 41 40 40 35 29 31 37 36 36 40 38 41 41 38 37 34 31 29 31 32 31 31 28 36 34 31 27 37 37 37 39 37 38 38 36 35
44 44 43 43 43 44 44 44 44 44 44 44 44 44 44 44 43 40 34 40 42 41 35 28 35 39 35 35 35 37 39 39 37 33 31 34 37 31 29 28 33 34 34 35 35 36 36 37 39 35 34 35 33 31
44 44 43 43 44 44 44 45 44 44 44 44 44 44 44 44 41 36 33 38 42 42 34 29 32 38 38 39 39 40 41 40 39 35 34 32 35 34 33 29 30 30 30 31 35 35 36 37 35 33 32 32 29 27
44 43 43 44 43 44 43 43 43 43 43 43 43 44 44 41 41 39 41 41 40 37 35 29 31 35 39 36 33 39 37 38 38 36 36 33 36 35 30 26 28 29 29 31 32 33 35 35 32 30 29 28 26 24
43 42 43 43 43 43 44 42 42 43 43 44 44 42 41 37 35 39 41 40 40 34 27 30 29 28 39 35 37 36 37 31 35 33 33 33 31 27 22 23 24 25 26 28 30 32 34 34 30 27 26 26 24 23
41 41 42 42 41 42 43 44 44 44 43 41 38 34 31 39 41 38 36 33 33 33 36 31 32 30 34 33 32 33 32 29 26 30 28 25 20 23 23 23 24 25 26 28 28 28 27 28 27 25 24 23 23 22
40 39 40 42 41 43 41 41 41 40 40 38 35 34 40 40 36 34 30 29 30 29 31 32 32 31 35 29 30 31 30 31 26 29 28 21 17 20 22 20 23 24 24 24 26 25 25 25 24 23 21 21 20 20
39 39 38 41 42 41 41 41 42 40 40 40 39 39 35 31 28 26 26 28 28 27 30 31 32 33 34 31 30 31 28 30 23 25 20 13 18 20 21 21 21 23 23 22 23 22 22 22 22 21 20 19 18 18
39 39 37 37 37 36 39 43 43 41 38 28 25 21 21 20 17 18 20 21 22 25 27 31 30 31 31 31 30 29 26 21 24 16 12 14 18 18 20 20 20 21 21 21 21 21 20 19 19 19 17 18 18 17
37 36 39 34 36 34 32 31 32 26 23 20 16 13 13 12 16 17 17 19 24 26 27 31 30 29 30 27 27 21 20 16 11 9 9 14 18 18 19 20 18 18 19 18 18 18 18 17 17 18 18 18 16 15
40 40 34 35 32 30 30 29 25 24 21 17 15 13 14 17 19 19 21 22 24 26 28 29 25 22 18 17 18 17 13 9 10 8 12 15 16 17 17 18 19 18 18 17 18 17 16 16 16 15 16 16 16 15
38 38 40 33 34 31 27 26 25 25 21 16 15 13 14 14 14 16 18 19 23 24 27 25 21 16 14 14 10 10 8 6 8 13 15 16 16 16 16 17 17 18 18 18 18 17 17 16 15 15 15 15 14 14
38 37 40 40 30 28 29 22 22 20 18 16 14 17 14 14 14 15 17 19 24 23 19 18 14 15 18 9 7 10 7 10 11 13 15 16 15 15 16 16 16 16 15 16 16 17 16 17 16 14 12 13 14 14
37 38 38 38 33 28 25 23 19 16 13 15 12 15 16 17 16 16 20 21 23 22 20 16 17 11 8 7 6 10 13 14 15 14 14 14 14 15 15 14 15 15 14 14 14 14 14 14 13 13 12 11 10 10
38 39 37 35 29 25 21 21 17 13 15 16 15 16 16 17 19 20 21 22 22 21 19 16 11 9 9 12 11 13 14 14 12 13 14 14 15 14 14 13 13 12 12 12 11 11 11 11 11 11 9 8 7 8
38 35 37 35 29 25 24 23 21 16 14 16 17 15 16 16 18 18 16 18 16 13 11 9 9 12 13 14 15 15 15 15 13 10 10 11 12 12 11 11 11 11 9 8 7 7 7 7 6 6 6 5 4 3
30 32 33 31 27 28 26 22 21 18 19 15 16 15 15 15 12 11 12 13 11 11 9 12 12 14 16 16 16 16 15 14 12 11 10 9 10 9 8 7 6 5 4 3 4 4 4 4 4 2 1 1 1 1
28 33 26 26 24 24 21 25 22 23 20 19 20 16 11 9 9 10 11 9 10 12 14 14 15 15 14 14 15 15 14 13 12 11 10 9 6 5 4 4 3 2 2 2 3 2 3 3 2 0 -2 -2 -1 -0
29 28 23 22 19 21 24 27 23 23 17 17 16 10 6 6 10 11 9 12 12 15 16 15 15 14 13 13 13 12 12 10 8 7 6 6 5 5 5 4 3 2 2 2 2 1 1 1 0 -0 -2 -4 -5 -5
24 22 21 19 19 18 18 18 18 15 15 15 14 12 9 6 8 7 7 10 13 15 14 14 13 11 9 9 9 9 9 8 7 6 6 5 4 4 5 4 4 3 3 3 -2 -3 -3 -3 -3 -1 -2 -1 -3 -3
15 18 17 17 17 16 15 14 13 13 12 12 13 12 9 8 5 6 6 9 10 9 10 10 9 7 6 6 8 9 9 7 5 4 5 5 4 3 3 3 2 3 1 1 -0 -3 -4 -5 -5 -4 -4 -3 -1 -2
14 16 16 17 16 16 15 14 12 12 12 12 12 7 4 4 3 4 7 9 10 9 7 6 7 7 6 6 6 6 7 7 6 4 5 6 2 -1 -0 -0 -0 1 -0 -2 -1 -0 -0 -2 -3 -3 -3 -4 -5 -4
12 13 13 11 14 13 11 10 10 10 11 12 9 4 0 -0 1 5 9 10 10 9 9 8 7 7 7 7 6 6 5 4 2 2 2 2 2 1 -2 -2 -2 1 -1 -2 -2 -1 -1 -1 -2 -2 -3 -5 -5 -5
10 8 9 5 6 5 5 4 5 6 7 8 3 2 1 0 2 8 9 9 10 9 8 7 6 6 4 3 3 2 2 2 2 2 2 2 1 1 -0 -1 -0 2 -1 -3 -3 -3 -2 -3 -3 -3 -4 -3 -3 -6
5 4 3 2 3 3 2 2 3 6 7 2 1 1 4 7 6 8 9 9 8 6 4 4 1 -0 0 -0 -1 -1 1 1 1 1 0 -1 -2 0 -3 -2 -3 -3 -3 -0 0 -1 -1 -2 -2 -2 -3 -4 -5 -9
6 4 3 1 0 -0 3 3 3 3 5 6 9 7 6 6 8 8 8 8 8 6 3 1 -3 -4 -3 -2 -0 0 -3 -4 1 3 1 0 -2 -3 -2 -1 -1 -3 -6 -3 -3 -3 -2 -3 -4 -5 -5 -5 -7 -7
6 4 4 3 2 4 4 3 4 3 1 2 1 2 2 4 8 8 6 2 1 1 2 1 1 -3 -2 -3 -2 -2 -1 -2 -6 -5 -5 -5 -5 -3 -3 -5 -8 -9 -7 -5 -5 -5 -5 -6 -8 -7 -7 -7 -8 -10
4 3 2 2 4 6 6 4 4 3 2 3 3 1 1 1 2 5 5 5 5 6 4 3 5 5 1 -3 -5 -6 -4 -2 -3 -4 -3 -4 -6 -6 -8 -9 -10 -10 -9 -8 -9 -8 -8 -8 -9 -10 -11 -11 -12 -13
5 5 5 6 6 6 7 5 4 5 3 4 4 0 -1 -0 2 4 3 0 6 7 5 3 -2 -3 -2 -2 -2 -3 -2 -3 -5 -2 -6 -5 -7 -7 -10 -10 -10 -9 -8 -8 -9 -9 -9 -10 -11 -12 -13 -14 -14 -16
Wind_Speed
30 30 28 28 29 30 29 29 28 27 27 26 24 24 26 30 35 29 16 24 20 3 7 24 16 14 13 19 14 7 4 4 6 11 7 6 5 6 6 5 5 9 9 7 5 5 16 7 2 2 5 9 9 19
31 30 31 32 31 29 29 31 32 30 29 29 28 26 27 26 22 31 3 18 19 14 2 4 10 14 27 27 19 17 11 6 11 6 7 5 7 3 5 3 2 7 9 7 13 12 4 5 7 10 5 6 9 14
29 31 33 29 27 26 21 24 28 30 29 30 31 30 28 28 29 23 9 10 7 8 5 9 11 16 10 21 15 13 8 8 7 4 9 7 5 5 7 11 9 5 6 6 5 4 14 12 11 12 12 20 17 14
32 31 24 21 17 19 22 22 23 28 27 29 28 31 32 30 31 28 10 15 7 5 3 5 3 12 11 11 10 6 2 3 4 3 4 5 6 5 6 8 10 8 5 6 11 6 14 1 12 17 26 21 22 28
21 17 19 20 20 22 23 23 25 26 26 29 29 29 32 33 31 22 13 16 14 2 4 4 5 7 11 15 13 6 6 7 3 6 6 5 4 3 1 2 4 2 2 5 10 2 5 10 12 14 19 23 22 19
18 16 18 20 18 18 19 19 22 31 28 27 29 29 30 32 31 16 5 12 12 5 3 5 2 6 14 15 15 15 13 7 8 10 6 6 4 3 2 4 3 2 6 7 6 14 15 18 5 14 14 19 17 16
16 18 19 21 17 8 5 11 27 33 29 28 29 29 28 28 26 12 8 12 22 9 2 3 4 3 9 5 5 4 4 4 5 7 8 6 5 8 3 6 4 8 11 13 8 14 5 10 7 13 13 13 10 9
20 24 25 23 24 24 16 20 29 31 30 29 29 30 31 34 14 3 5 30 25 5 3 4 5 7 13 7 8 4 6 4 3 7 4 6 4 4 5 3 6 9 14 12 11 11 11 8 9 11 10 5 10 16
21 27 27 28 27 29 29 22 26 27 29 32 36 39 24 5 4 7 28 18 8 3 4 3 6 8 6 4 4 4 4 6 4 4 4 5 3 4 4 7 10 11 11 16 19 17 7 6 8 9 11 12 12 17
20 25 27 27 29 34 33 38 39 40 44 37 16 7 5 6 36 19 6 3 1 1 2 4 3 5 5 5 5 7 4 7 6 6 5 4 4 8 9 7 9 11 14 12 14 8 13 9 8 11 13 13 10 15
24 26 24 20 18 23 28 29 26 20 14 5 4 6 22 9 5 4 6 6 5 3 3 2 3 8 3 4 5 2 4 5 6 2 5 3 3 4 8 9 10 10 9 9 7 9 9 9 9 9 12 14 13 16
20 21 22 23 22 17 13 8 11 9 6 9 12 9 8 9 6 5 3 2 2 1 2 4 4 5 4 5 5 2 3 3 3 3 4 3 4 7 8 9 11 10 9 11 12 12 12 12 12 13 13 15 17 18
17 18 20 21 19 20 23 15 9 17 8 6 8 6 5 7 11 4 2 2 2 7 7 3 6 3 3 4 5 2 3 3 3 5 3 4 7 8 8 8 11 12 13 14 15 15 17 19 19 17 19 18 19 20
19 18 19 19 18 21 14 9 11 10 9 7 6 7 7 6 5 4 3 2 3 4 5 6 5 4 4 4 3 4 3 4 4 3 2 4 7 8 10 10 12 14 15 16 16 18 19 20 22 21 21 19 20 21
14 17 18 17 14 16 18 16 14 9 7 7 7 6 6 3 4 5 5 2 6 6 3 4 7 5 8 6 5 4 4 5 4 2 2 5 9 11 12 12 13 14 15 16 16 18 19 20 21 23 21 20 20 20
6 6 15 16 13 11 9 9 9 5 6 6 9 5 7 4 11 9 10 8 9 8 2 6 5 6 8 4 5 5 3 2 2 4 7 9 11 11 12 14 15 15 16 16 16 17 18 20 21 21 21 20 21 20
11 5 14 10 13 17 14 7 7 8 7 6 7 9 5 2 4 6 7 10 9 5 6 5 6 6 4 5 4 4 2 5 9 8 9 10 11 11 12 14 14 15 15 15 16 17 18 16 16 19 21 18 19 19
5 8 14 10 4 7 6 8 7 8 9 9 6 10 6 6 8 8 10 13 5 4 4 5 4 6 4 3 3 4 7 10 10 10 10 11 12 13 13 14 14 14 15 15 15 15 15 15 16 15 15 14 15 14
5 9 14 5 5 5 5 7 7 7 8 3 4 6 4 4 9 11 11 12 14 11 7 5 7 5 4 5 11 10 9 8 11 11 13 13 13 13 13 13 14 15 15 14 14 13 13 14 12 11 10 11 12 10
6 7 11 7 4 5 6 5 5 7 5 4 3 10 5 4 7 7 13 12 10 6 9 7 6 6 5 9 9 11 10 10 12 14 11 11 10 12 13 11 11 10 11 12 14 12 12 13 13 11 12 12 14 12
5 7 9 5 5 10 6 5 7 6 7 5 4 4 6 11 16 12 11 10 11 8 7 7 9 13 15 14 12 13 12 11 9 6 6 9 9 10 11 11 12 12 12 12 13 12 13 12 9 10 15 14 13 12
4 7 4 7 6 6 7 9 9 10 5 6 4 5 5 6 8 11 7 14 7 8 6 7 11 13 15 13 13 13 13 15 14 14 12 9 9 10 11 9 12 14 13 11 11 11 9 8 9 11 13 11 11 11
3 4 5 6 7 6 4 0 4 3 4 3 3 4 5 4 4 5 7 6 5 8 8 10 11 14 16 13 14 14 11 13 13 12 12 12 11 10 11 10 10 12 11 8 7 9 8 5 7 10 9 9 9 9
7 6 6 5 6 5 3 5 4 5 5 4 4 4 4 3 3 6 6 3 3 5 9 9 9 12 11 12 13 11 9 11 14 12 8 11 11 8 8 8 9 9 6 6 8 8 7 7 6 7 6 6 5 5
5 8 6 8 5 6 5 4 4 5 5 4 4 4 3 4 5 4 3 3 2 4 5 8 11 11 13 9 7 8 7 7 11 11 6 8 10 8 8 7 7 6 3 6 5 6 5 5 5 5 4 3 3 1
8 9 6 4 4 5 3 4 3 4 4 3 4 3 3 4 4 4 3 5 4 4 8 12 14 11 8 6 9 6 4 5 8 7 4 2 3 4 6 5 3 3 5 4 4 3 3 2 1 1 0 1 0 1
6 6 5 7 3 7 8 7 6 7 4 3 3 3 3 4 3 1 2 1 4 3 4 5 7 9 11 9 7 7 7 8 9 9 7 9 7 4 4 3 4 1 1 2 2 1 1 3 2 2 3 4 4 5
5 7 6 7 9 9 6 5 4 3 3 2 4 4 3 3 3 2 2 4 11 12 13 11 11 11 11 11 11 14 13 13 14 12 11 10 9 8 7 6 4 2 1 2 3 3 0 2 2 3 4 6 6 4
7 3 6 10 7 9 9 5 3 3 4 3 5 4 4 3 1 4 5 9 10 14 15 14 10 11 12 10 8 6 10 11 6 2 2 3 1 1 3 3 4 4 3 2 1 2 4 4 3 4 4 5 6 5
4 3 6 7 7 8 8 5 4 4 5 4 5 9 8 6 7 6 10 9 9 11 10 11 10 7 8 6 7 6 4 1 5 5 5 5 3 3 1 1 2 3 3 2 3 5 5 4 3 2 3 5 5 5
3 4 7 7 7 6 11 10 17 16 9 13 11 12 8 4 5 8 7 5 12 13 13 9 5 4 6 6 3 3 1 1 1 2 3 6 7 5 2 2 3 2 1 1 2 3 4 4 4 5 6 7 7 7
6 5 8 7 6 5 1 2 4 5 4 4 5 4 3 4 3 3 5 3 7 6 3 5 4 3 5 3 2 1 2 8 6 6 6 5 4 2 2 1 2 1 1 2 3 2 2 3 4 6 7 7 7 9
10 16 11 8 5 5 4 5 4 4 5 3 2 1 2 3 4 2 2 5 3 4 8 7 6 8 7 7 8 7 6 6 6 5 5 4 3 2 1 1 1 1 1 1 1 1 3 4 5 5 6 8 10 11
Wind_Direction
293 290 286 278 270 263 255 249 244 238 234 230 224 217 217 214 208 199 204 186 209 176 194 194 199 177 174 182 180 153 151 215 155 179 200 197 241 232 231 191 171 183 195 207 172 239 268 201 91 213 277 290 303 337
291 288 282 279 275 265 256 249 238 234 230 225 219 214 203 201 204 192 133 186 189 211 224 205 219 203 193 185 183 162 203 169 172 162 196 196 208 212 191 232 237 240 200 194 190 214 265 218 250 256 241 265 299 336
292 291 289 290 269 265 259 253 234 225 227 220 213 208 201 194 190 188 152 177 104 149 160 179 196 212 232 211 201 185 224 201 190 182 171 202 231 154 207 233 224 236 194 221 239 259 267 304 312 333 303 267 272 273
295 291 291 288 274 267 262 249 233 219 217 207 202 203 196 193 188 180 162 162 130 117 155 188 159 176 197 173 180 183 190 100 108 157 202 193 205 192 225 244 215 233 170 219 256 306 324 69 351 350 332 329 279 263
311 309 303 297 280 272 266 253 227 213 202 196 197 198 193 186 184 167 157 163 164 104 152 172 152 226 198 185 187 182 201 223 214 220 212 230 202 175 254 184 233 358 227 223 260 2 281 276 335 9 358 352 357 359
335 325 318 309 294 282 272 253 230 198 188 185 187 183 182 179 167 136 133 176 160 133 200 155 194 175 202 206 210 210 212 213 213 217 242 213 186 175 212 280 66 31 2 355 297 324 293 278 299 23 20 350 5 357
1 359 9 2 339 319 321 261 200 171 169 168 169 167 168 166 148 156 180 160 162 175 177 97 118 189 162 140 158 155 133 187 226 191 218 202 190 175 154 250 19 352 336 320 327 343 326 25 341 357 34 358 17 12
25 46 27 24 44 42 70 91 127 146 149 150 149 152 142 140 135 162 5 148 146 149 171 160 158 155 160 160 179 141 157 155 214 186 195 179 136 140 222 22 351 349 325 306 343 329 306 331 4 17 31 24 33 33
44 32 26 40 60 57 63 100 118 124 134 133 124 114 117 87 155 104 121 112 77 113 183 157 182 175 159 138 121 123 135 173 250 192 167 141 133 194 30 354 347 337 325 313 319 311 322 19 21 15 35 40 44 40
33 35 31 41 62 64 77 87 102 104 103 105 97 75 110 137 119 107 68 76 39 287 152 218 102 170 186 124 138 147 176 142 168 211 100 91 100 89 25 8 350 334 326 344 336 344 351 3 35 30 42 49 57 65
30 28 40 49 47 59 87 90 90 82 58 60 89 55 110 109 88 91 121 153 182 224 199 213 198 123 24 114 120 44 147 154 172 161 184 137 100 30 2 4 0 356 357 2 11 35 28 25 40 55 57 60 64 72
35 25 34 59 66 70 82 94 43 81 80 82 96 74 36 28 47 80 86 83 161 171 22 87 75 80 34 43 97 129 116 133 151 28 87 102 60 23 21 20 16 17 29 40 43 51 52 55 58 68 69 73 73 76
42 40 41 50 72 67 80 102 101 109 60 58 57 58 23 2 54 56 118 58 59 356 2 57 87 86 79 63 83 126 140 94 99 59 77 50 38 24 30 39 44 43 51 56 59 64 68 66 61 64 67 61 68 68
50 49 49 52 61 68 77 68 112 78 72 58 47 54 50 28 45 27 349 317 322 332 3 67 80 76 25 74 19 94 50 66 74 92 96 36 50 61 58 59 64 57 61 62 60 61 64 67 67 64 65 67 72 69
60 48 41 35 48 54 61 70 70 67 61 66 48 58 60 358 2 332 326 7 341 308 1 80 65 62 37 73 35 100 59 69 59 101 74 63 60 61 55 49 62 68 69 68 67 69 69 69 71 68 63 66 67 68
36 50 22 29 35 31 45 64 42 65 63 62 46 47 0 51 12 10 4 6 348 346 10 42 76 66 44 52 52 36 82 97 112 84 94 88 82 77 76 71 64 61 62 67 68 70 71 69 70 72 67 63 63 67
49 52 355 9 47 45 37 71 51 52 58 49 41 14 18 48 352 341 341 339 317 18 55 44 55 52 66 58 57 24 93 127 125 93 75 73 77 73 72 68 65 68 63 61 63 65 70 71 76 76 71 62 66 66
50 348 354 355 28 40 42 44 73 62 62 36 61 5 21 20 354 6 355 353 21 68 54 65 70 56 56 97 119 120 104 102 93 93 85 78 75 69 69 73 68 68 69 64 61 60 57 62 66 67 71 73 71 67
351 343 345 36 79 79 66 46 67 85 56 56 6 4 23 1 10 12 19 31 49 62 93 66 61 51 63 71 123 121 114 109 107 88 73 64 67 73 73 72 70 67 65 64 67 66 65 62 64 65 69 75 79 67
323 2 25 77 51 82 77 60 77 85 73 111 55 43 49 18 358 2 30 32 50 60 55 51 40 37 72 75 86 95 95 103 107 94 74 61 58 66 60 65 64 67 68 66 59 58 65 64 50 61 70 77 86 78
33 354 13 53 60 69 86 95 65 103 133 101 167 109 66 41 36 31 26 13 53 40 62 58 74 72 73 73 76 85 79 88 88 104 117 90 60 69 67 60 67 67 77 76 80 70 69 74 74 82 89 87 86 86
353 355 40 30 72 65 69 29 113 142 96 128 144 75 70 43 29 23 22 37 53 20 36 72 73 82 74 69 73 78 90 87 83 82 79 90 90 80 75 75 87 81 74 75 85 88 76 72 90 96 98 95 88 84
23 38 46 41 79 80 118 155 87 82 94 93 70 64 47 52 36 29 70 41 64 34 63 71 78 83 86 77 76 70 78 95 93 94 95 94 90 86 88 80 95 103 95 75 81 83 84 76 84 99 104 97 98 87
41 50 43 58 67 92 76 50 55 66 68 63 66 74 55 69 57 69 74 60 77 64 74 87 98 96 76 66 68 71 77 97 101 93 97 109 101 83 82 83 77 74 85 104 85 83 76 75 79 90 88 103 96 106
81 13 36 59 39 86 81 67 51 66 75 58 83 72 66 58 70 72 93 129 99 89 81 87 86 95 107 100 84 79 63 107 115 107 72 106 113 102 84 69 59 46 57 111 114 103 92 78 76 79 72 84 109 114
73 17 45 55 53 86 85 97 92 102 99 80 76 83 59 83 80 100 126 152 136 151 152 136 127 111 89 104 119 100 75 92 108 100 72 76 141 139 151 142 121 42 26 113 129 152 174 182 161 111 45 6 272 254
76 49 53 31 56 90 92 72 63 83 84 96 115 91 80 78 96 114 119 76 117 121 120 135 132 127 133 119 95 71 72 75 94 106 89 74 74 93 144 167 153 151 112 116 124 112 201 207 220 253 288 299 270 257
73 38 93 10 65 41 95 72 60 71 91 63 90 65 88 106 130 143 90 94 114 105 91 76 75 97 107 108 111 107 97 103 102 96 89 71 58 65 77 83 69 82 170 180 161 143 113 209 235 267 288 296 294 262
54 38 82 53 59 52 41 42 71 47 5 72 100 106 108 74 47 107 102 110 112 114 114 112 93 95 93 85 68 84 133 144 133 43 21 345 282 232 35 67 53 40 32 35 269 237 262 211 259 270 296 299 306 302
51 46 90 59 57 47 17 13 52 22 29 72 93 106 82 55 44 73 111 119 133 135 135 136 140 135 134 122 113 87 41 291 239 253 283 304 235 186 148 106 12 358 357 14 1 348 4 9 19 12 343 342 346 330
78 79 78 63 74 102 110 83 74 63 52 64 60 91 94 99 59 38 52 90 125 127 132 139 129 139 139 149 158 158 171 358 57 112 128 125 125 118 86 18 2 17 64 28 358 342 337 338 341 331 333 333 334 330
38 72 118 107 142 193 170 68 74 77 49 54 44 54 58 77 86 22 14 109 130 153 180 174 164 179 201 213 191 182 124 137 139 129 125 113 95 85 82 51 30 63 77 60 49 55 39 355 330 322 317 321 325 324
79 85 92 99 108 145 169 103 64 93 57 72 53 58 78 107 131 172 17 32 214 200 171 161 134 128 128 129 128 131 135 132 133 131 127 116 85 84 137 146 122 134 128 66 29 350 343 335 329 329 323 317 316 315